Regional Weather Roundup
Issued by NWS

Home | Current Version | Previous Version | Text Only | Print | Product List | Glossary Off
Versions: 1 2 3 4 5 6 7 8 9 10 11 12 13 14 15 16 17 18 19 20 21 22 23 24 25 26 27 28 29 30 31 32 33 34 35 36 37 38 39 40 41 42 43 44 45 46 47 48 49 50

047
ASUS45 KBOI 291210
RWRID

IDAHO REGIONAL WEATHER ROUNDUP
NATIONAL WEATHER SERVICE BOISE ID
600 AM MDT SAT APR 29 2017

NOTE: "FAIR" INDICATES FEW OR NO CLOUDS BELOW 12000 FEET
WITH NO SIGNIFICANT WEATHER AND/OR OBSTRUCTIONS TO VISIBILITY

IDZ012-014-291300-
SOUTHWEST IDAHO


CITY           SKY/WX    TMP DP  RH WIND       PRES   REMARKS
BOISE          CLEAR     36  30  79 CALM      30.21R
CALDWELL       CLEAR     34  30  85 W9        30.23R WCI  27
MOUNTAIN HOME  CLEAR     36  33  90 W14       30.20R WCI  27
$$

IDZ016-017-291300-
SOUTHCENTRAL IDAHO


CITY           SKY/WX    TMP DP  RH WIND       PRES   REMARKS
BURLEY         CLEAR     36  27  69 W9        30.17R WCI  29
JEROME         CLEAR     32  27  81 S7        30.19R WCI  26
TWIN FALLS     CLEAR     34  27  75 S10       30.20R WCI  26
$$

IDZ019>023-291300-
SOUTHEAST IDAHO


CITY           SKY/WX    TMP DP  RH WIND       PRES   REMARKS
IDAHO FALLS    CLEAR     30  26  85 N9        30.18R WCI  22
POCATELLO      CLEAR     28  25  88 NW7       30.18R WCI  21
REXBURG        CLEAR     31  26  82 NE3       30.18R
$$

IDZ006-010-011-018-031-032-291300-
CENTRAL IDAHO MOUNTAINS


CITY           SKY/WX    TMP DP  RH WIND       PRES   REMARKS
MCCALL         CLEAR     28  21  75 CALM      30.18S
HAILEY         CLEAR     32  21  64 NW8       30.19S WCI  25
STANLEY          N/A     18  15  88 CALM      30.21S
SALMON         CLEAR     27  21  80 CALM      30.24S
CHALLIS        CLEAR     24  18  77 CALM      30.22R
$$

IDZ002-004-006-007-026-291300-
NORTHERN IDAHO


CITY           SKY/WX    TMP DP  RH WIND       PRES   REMARKS
LEWISTON       CLEAR     40  37  89 CALM      30.27R
LOWELL           N/A     37  34  89 S5        30.35R WCI  33
COEUR D`ALENE  CLEAR     41  37  86 S7        30.24R
MULLAN PASS    CLOUDY    30  30 100 VRB3      30.20R
$$




USA.gov is the U.S. government's official web portal to all federal, state and local government web resources and services.